Regional Weather Roundup
Issued by NWS

Home | Current Version | Previous Version | Graphics & Text | Print | Product List | Glossary On
Versions: 1 2 3 4 5 6 7 8 9 10 11 12 13 14 15 16 17 18 19 20 21 22 23 24 25 26 27 28 29 30 31 32 33 34 35 36 37 38 39 40 41 42 43 44 45 46 47 48 49 50
000
ASUS43 KLMK 280602
RWRKY
KENTUCKY REGIONAL WEATHER ROUNDUP
NATIONAL WEATHER SERVICE LOUISVILLE KY
200 AM EDT SAT MAY 28 2016

NOTE "FAIR" INDICATES FEW OR NO CLOUDS BELOW 12,000 FEET
WITH NO SIGNIFICANT WEATHER AND/OR OBSTRUCTIONS TO VISIBILITY.

KYZ001>023-026-027-061>063-070>075-280700-
WESTERN AND SOUTH CENTRAL KENTUCKY

CITY           SKY/WX    TMP DP  RH WIND       PRES   REMARKS
PADUCAH        CLOUDY    73  63  70 S6        29.91S
HENDERSON      CLOUDY    75  63  64 S8        29.93R
OWENSBORO      CLOUDY    76  67  73 SE12      29.97R
HOPKINSVILLE   NOT AVBL
BOWLING GREEN  CLOUDY    70  66  87 CALM      30.00F
GLASGOW        NOT AVBL
$$

KYZ024-025-028>034-038-045-046-053-280700-
NORTH CENTRAL KENTUCKY

CITY           SKY/WX    TMP DP  RH WIND       PRES   REMARKS
LOUISVILLE/SDF CLOUDY    73  64  73 S9        30.00F
LOUISVILLE/LOU CLOUDY    72  65  78 S6        30.01F
FORT KNOX      MOCLDY    69  66  89 S9        30.00F
$$

KYZ035>037-039>044-047>052-055>060-089>105-280700-
NORTHEAST KENTUCKY

CITY           SKY/WX    TMP DP  RH WIND       PRES   REMARKS
LEXINGTON      PTCLDY    70  64  81 SE5       30.05S
COVINGTON      CLOUDY    72  66  81 S12       30.02F
FRANKFORT      CLEAR     72  64  76 S6        30.03S
$$

KYZ054-064>069-076>088-106>120-280700-
SOUTHEAST KENTUCKY

CITY           SKY/WX    TMP DP  RH WIND       PRES   REMARKS
JACKSON        CLOUDY    67  65  93 CALM      30.09S
LONDON         PTCLDY    67  63  87 CALM      30.08F
SOMERSET       NOT AVBL
MIDDLESBORO    CLOUDY    63  63 100 CALM      30.12S
MONTICELLO     CLEAR     69  65  86 NE8       30.08S
$$





USA.gov is the U.S. government's official web portal to all federal, state and local government web resources and services.